Location: Molino di Ancona
(43.6167°N, 13.3667°E)
Time: 09:24:23
(UTC+00:00)

NOSS 3-2 (A) - Pass Details

Date: 15 December 2019
Orbit: 814 x 1394 km, 63.4° (Epoch: 18 January)

Event Time Altitude Azimuth Distance (km) Brightness Sun altitude
Rises 05:27:30 0° 228° (SW) 3,385 6.1 -11.3°
Reaches altitude 10° 05:29:53 10° 233° (SW) 2,496 5.4 -10.9°
Maximum altitude 05:35:33 59° 312° (NW) 1,071 3.5 -10.0°
Drops below altitude 10° 05:42:02 10° 32° (NNE) 2,835 6.0 -8.9°
Sets 05:44:54 0° 36° (NE) 3,884 6.8 -8.4°
